Schley, Minnesota
Current Conditions -  °F | °C
As of 2:15 AM on Sunday 21 Dec 2014 (Local Time) from KY49 Reporting Station
Haze Haze  
Wind Chill: 21°   Ceiling: 400
Heat Index: 27°   Visibility: 5mi
Dew Point: 26°   Wind: 6mph
Humidity: 96%   Direction: 160°SSE
Pressure: 29.9"   Gusts: NA
Location:  47.3012°N, 94.5426°W
Report Text: KY49 210815Z AUTO 16005KT 5SM BR OVC004 M03/M03 A2990 RMK AO2 T10271032
Loading
Personal Weather Stations






























Interactive Weather Map New forecast layout! Learn more

10-Day Weather Forecast

Advertisements
Track Severe Weather on mobile